Regional Weather Roundup
Issued by NWS

Home | Current Version | Previous Version | Graphics & Text | Print | Product List | Glossary On
Versions: 1 2 3 4 5 6 7 8 9 10 11 12 13 14 15 16 17 18 19 20 21 22 23 24 25 26 27 28 29 30 31 32 33 34 35 36 37 38 39 40 41 42 43 44 45 46 47 48 49 50
000
ASUS43 KLMK 272210
RWRKY
KENTUCKY REGIONAL WEATHER ROUNDUP
NATIONAL WEATHER SERVICE LOUISVILLE KY
500 PM EST TUE JAN 27 2015

NOTE "FAIR" INDICATES FEW OR NO CLOUDS BELOW 12,000 FEET
WITH NO SIGNIFICANT WEATHER AND/OR OBSTRUCTIONS TO VISIBILITY.

KYZ001>023-026-027-061>063-070>075-272300-
WESTERN AND SOUTH CENTRAL KENTUCKY

CITY           SKY/WX    TMP DP  RH WIND       PRES   REMARKS
PADUCAH        CLOUDY    43  29  57 N15       30.16R
HENDERSON      CLOUDY    36  28  75 N8        30.17R WCI  29
OWENSBORO      CLOUDY    34  30  85 N7        30.17R WCI  28
HOPKINSVILLE   CLOUDY    37  30  75 NW7       30.15R WCI  32
BOWLING GREEN  CLOUDY    35  29  78 NW5       30.15R WCI  31
GLASGOW        CLOUDY    33  29  86 N6        30.13R WCI  27
$$

KYZ024-025-028>034-038-045-046-053-272300-
NORTH CENTRAL KENTUCKY

CITY           SKY/WX    TMP DP  RH WIND       PRES   REMARKS
LOUISVILLE/SDF CLOUDY    34  22  61 NW9       30.14R WCI  27
LOUISVILLE/LOU CLOUDY    34  20  56 N8        30.14R WCI  27
FORT KNOX      CLOUDY    32  25  76 W7        30.12S WCI  26
$$

KYZ035>037-039>044-047>052-055>060-089>105-272300-
NORTHEAST KENTUCKY

CITY           SKY/WX    TMP DP  RH WIND       PRES   REMARKS
LEXINGTON      CLEAR     32  16  51 NW8       30.10R WCI  25
COVINGTON      CLEAR     30  14  51 N10       30.12R WCI  21
FRANKFORT      CLEAR     32  10  40 NW8       30.11R WCI  25
$$

KYZ054-064>069-076>088-106>120-272300-
SOUTHEAST KENTUCKY

CITY           SKY/WX    TMP DP  RH WIND       PRES   REMARKS
JACKSON        CLEAR     32   4  30 VRB3      30.03R
LONDON         CLOUDY    32  19  58 NW8       30.06R WCI  25
SOMERSET       CLOUDY    32  23  69 N7        30.11R WCI  26
MIDDLESBORO    CLOUDY    32  24  73 N5        30.06R WCI  27
MONTICELLO     CLOUDY    32  28  85 NW6       30.13R WCI  26
$$



USA.gov is the U.S. government's official web portal to all federal, state and local government web resources and services.